Weather History for Dumas, TX

Change the Weather History Date:

Saturday, December 15, 2012

  Actual Average (KBGD) Record (KBGD)
Temperature  
Mean Temperature 44 °F 38 °F  
Max Temperature 55 °F 50 °F 79 °F (2010)
Min Temperature 33 °F 27 °F -1 °F (1987)
Degree Days  
Heating Degree Days 21 27  
Month to date heating degree days 378  
Since 1 July heating degree days 1095  
Cooling Degree Days 0 0  
Month to date cooling degree days 0  
Year to date cooling degree days 1839  
Moisture  
Dew Point 28 °F    
Average Humidity 60    
Maximum Humidity 81    
Minimum Humidity 35    
Precipitation  
Precipitation 0.00 in 0.02 in 1.54 in (1959)
Month to date precipitation 0.27  
Year to date precipitation 21.22  
Snow  
Snow 0.00 in - - ()
Month to date snowfall  
Since 1 July snowfall  
Snow Depth -    
Sea Level Pressure  
Sea Level Pressure 29.74 in    
Wind  
Wind Speed 21 mph (WSW)    
Max Wind Speed 31 mph    
Max Gust Speed 39 mph    
Visibility 10 miles    
Events      
T = Trace of Precipitation, MM = Missing Value Source: NWS Daily Summary

Daily Weather History Graph

Daily Weather History Graph

Search for Another Location

Airport:

Trip Planner

Search our weather history database for the weather conditions in past years. The results will help you decide how hot, cold, wet, or windy it might be!

Date:

Astronomy

Dec. 15, 2012 Rise Set
Actual Time 7:51 AM CST 5:35 PM CST
Civil Twilight 7:22 AM CST 6:04 PM CST
Nautical Twilight 6:50 AM CST 6:36 PM CST
Astronomical Twilight 6:19 AM CST 7:07 PM CST
Moon 9:49 AM CST (12/15) 8:38 PM CST (12/15)
Length of Visible Light 10h 41m
Length of Day
9h 44m
Waxing Crescent, 8% of the Moon is Illuminated
Dec 15
Waxing Crescent
Dec 19
First Quarter
Dec 28
Full
Jan 4
Last Quarter
Jan 11
New

Hourly Weather History & Observations

Time (CST) Temp. Windchill Dew Point Humidity Pressure Visibility Wind Dir Wind Speed Gust Speed Precip Events Conditions
12:15 AM 41.0 °F 29.8 °F 28.4 °F 61% 29.64 in 10.0 mi WSW 29.9 mph 36.8 mph N/A   Clear
12:35 AM 39.2 °F 27.6 °F 28.4 °F 65% 29.65 in 10.0 mi SW 28.8 mph 33.4 mph N/A   Clear
12:55 AM 39.2 °F 27.2 °F 28.4 °F 65% 29.65 in 10.0 mi SW 31.1 mph 36.8 mph N/A   Clear
1:15 AM 39.2 °F 27.2 °F 28.4 °F 65% 29.66 in 10.0 mi WSW 31.1 mph 39.1 mph N/A   Clear
1:35 AM 39.2 °F 27.4 °F 26.6 °F 61% 29.66 in 10.0 mi WSW 29.9 mph 39.1 mph N/A   Clear
1:55 AM 39.2 °F 27.8 °F 28.4 °F 65% 29.67 in 10.0 mi WSW 27.6 mph 33.4 mph N/A   Clear
2:15 AM 37.4 °F 26.1 °F 26.6 °F 65% 29.68 in 10.0 mi WSW 24.2 mph 34.5 mph N/A   Clear
2:35 AM 37.4 °F 26.4 °F 26.6 °F 65% 29.68 in 10.0 mi WSW 23.0 mph - N/A   Clear
2:55 AM 37.4 °F 26.1 °F 26.6 °F 65% 29.69 in 10.0 mi WSW 24.2 mph 29.9 mph N/A   Clear
3:15 AM 37.4 °F 26.1 °F 26.6 °F 65% 29.71 in 10.0 mi WSW 24.2 mph 29.9 mph N/A   Clear
3:35 AM 37.4 °F 26.1 °F 26.6 °F 65% 29.71 in 10.0 mi WSW 24.2 mph 31.1 mph N/A   Clear
3:55 AM 37.4 °F 26.9 °F 26.6 °F 65% 29.71 in 10.0 mi WSW 20.7 mph 27.6 mph N/A   Clear
4:15 AM 35.6 °F 25.9 °F 26.6 °F 70% 29.71 in 10.0 mi WSW 16.1 mph - N/A   Clear
4:35 AM 33.8 °F 24.8 °F 26.6 °F 75% 29.73 in 10.0 mi SW 12.7 mph - N/A   Clear
4:55 AM 33.8 °F 23.9 °F 26.6 °F 75% 29.72 in 10.0 mi WSW 15.0 mph - N/A   Clear
5:15 AM 33.8 °F 24.3 °F 26.6 °F 75% 29.72 in 10.0 mi WSW 13.8 mph - N/A   Clear
5:35 AM 33.8 °F 24.3 °F 26.6 °F 75% 29.72 in 10.0 mi WSW 13.8 mph - N/A   Clear
5:55 AM 33.8 °F 24.3 °F 26.6 °F 75% 29.73 in 10.0 mi WSW 13.8 mph - N/A   Clear
6:15 AM 33.8 °F 24.3 °F 26.6 °F 75% 29.74 in 10.0 mi WSW 13.8 mph - N/A   Clear
6:35 AM 33.8 °F 24.3 °F 26.6 °F 75% 29.74 in 10.0 mi WSW 13.8 mph - N/A   Clear
6:55 AM 33.8 °F 24.3 °F 26.6 °F 75% 29.75 in 10.0 mi WSW 13.8 mph - N/A   Clear
7:15 AM 33.8 °F 23.2 °F 26.6 °F 75% 29.76 in 10.0 mi SW 17.3 mph - N/A   Clear
7:35 AM 33.8 °F 23.9 °F 26.6 °F 75% 29.77 in 10.0 mi SW 15.0 mph - N/A   Clear
7:55 AM 33.8 °F 23.5 °F 26.6 °F 75% 29.77 in 10.0 mi SW 16.1 mph - N/A   Clear
8:15 AM 33.8 °F 23.9 °F 28.4 °F 81% 29.78 in 10.0 mi WSW 15.0 mph - N/A   Clear
8:35 AM 33.8 °F 23.2 °F 28.4 °F 81% 29.78 in 10.0 mi WSW 17.3 mph - N/A   Clear
8:55 AM 35.6 °F 25.2 °F 28.4 °F 75% 29.79 in 10.0 mi WSW 18.4 mph 25.3 mph N/A   Clear
9:15 AM 37.4 °F 27.8 °F 28.4 °F 70% 29.80 in 10.0 mi WSW 17.3 mph - N/A   Clear
9:35 AM 39.2 °F 32.0 °F 28.4 °F 65% 29.78 in 10.0 mi WSW 11.5 mph - N/A   Clear
9:55 AM 41.0 °F 33.5 °F 28.4 °F 61% 29.78 in 10.0 mi WSW 13.8 mph - N/A   Clear
10:15 AM 42.8 °F 36.6 °F 28.4 °F 57% 29.78 in 10.0 mi WSW 11.5 mph - N/A   Clear
10:35 AM 44.6 °F 38.1 °F 30.2 °F 57% 29.79 in 10.0 mi WSW 13.8 mph - N/A   Clear
10:55 AM 46.4 °F 39.5 °F 30.2 °F 53% 29.80 in 10.0 mi WSW 17.3 mph - N/A   Clear
11:15 AM 48.2 °F - 30.2 °F 50% 29.81 in 10.0 mi WSW 19.6 mph 23.0 mph N/A   Clear
11:35 AM 46.4 °F 39.5 °F 30.2 °F 53% 29.81 in 10.0 mi WSW 17.3 mph - N/A   Clear
11:55 AM 46.4 °F 40.1 °F 30.2 °F 53% 29.80 in 10.0 mi WSW 15.0 mph - N/A   Clear
12:15 PM 50.0 °F - 30.2 °F 47% 29.78 in 10.0 mi SW 12.7 mph - N/A   Clear
12:35 PM 50.0 °F - 30.2 °F 47% 29.76 in 10.0 mi WSW 15.0 mph - N/A   Clear
12:55 PM 51.8 °F - 30.2 °F 44% 29.77 in 10.0 mi WSW 21.9 mph - N/A   Clear
1:15 PM 51.8 °F - 30.2 °F 44% 29.74 in 10.0 mi WSW 18.4 mph - N/A   Clear
1:35 PM 51.8 °F - 28.4 °F 41% 29.74 in 10.0 mi SW 20.7 mph - N/A   Clear
1:55 PM 51.8 °F - 28.4 °F 41% 29.73 in 10.0 mi WSW 21.9 mph - N/A   Clear
2:15 PM 51.8 °F - 26.6 °F 38% 29.72 in 10.0 mi SW 19.6 mph 26.5 mph N/A   Clear
2:35 PM 51.8 °F - 28.4 °F 41% 29.72 in 10.0 mi WSW 21.9 mph 26.5 mph N/A   Clear
2:55 PM 53.6 °F - 28.4 °F 38% 29.72 in 10.0 mi WSW 20.7 mph - N/A   Clear
3:15 PM 53.6 °F - 28.4 °F 38% 29.71 in 10.0 mi WSW 18.4 mph 25.3 mph N/A   Clear
3:35 PM 55.4 °F - 28.4 °F 36% 29.71 in 10.0 mi WSW 19.6 mph - N/A   Clear
3:55 PM 53.6 °F - 28.4 °F 38% 29.71 in 10.0 mi WSW 20.7 mph 24.2 mph N/A   Clear
4:15 PM 53.6 °F - 26.6 °F 35% 29.71 in 10.0 mi WSW 18.4 mph - N/A   Clear
4:35 PM 53.6 °F - 28.4 °F 38% 29.72 in 10.0 mi WSW 16.1 mph - N/A   Clear
4:55 PM 51.8 °F - 28.4 °F 41% 29.72 in 10.0 mi SW 10.4 mph - N/A   Clear
5:15 PM 51.8 °F - 26.6 °F 38% 29.72 in 10.0 mi WSW 13.8 mph - N/A   Clear
5:35 PM 50.0 °F - 26.6 °F 40% 29.72 in 10.0 mi West 15.0 mph - N/A   Clear
5:55 PM 46.4 °F 40.7 °F 26.6 °F 46% 29.73 in 10.0 mi WSW 12.7 mph - N/A   Clear
6:15 PM 42.8 °F 36.6 °F 28.4 °F 57% 29.74 in 10.0 mi WSW 11.5 mph - N/A   Clear
6:35 PM 42.8 °F 36.2 °F 28.4 °F 57% 29.74 in 10.0 mi WSW 12.7 mph - N/A   Clear
6:55 PM 42.8 °F 35.8 °F 28.4 °F 57% 29.75 in 10.0 mi SW 13.8 mph - N/A   Clear
7:15 PM 42.8 °F 36.2 °F 28.4 °F 57% 29.76 in 10.0 mi SW 12.7 mph - N/A   Clear
7:35 PM 41.0 °F 33.5 °F 28.4 °F 61% 29.76 in 10.0 mi SW 13.8 mph - N/A   Clear
7:55 PM 41.0 °F 33.5 °F 28.4 °F 61% 29.76 in 10.0 mi SW 13.8 mph - N/A   Clear
8:15 PM 37.4 °F 29.3 °F 28.4 °F 70% 29.76 in 10.0 mi SW 12.7 mph - N/A   Clear
8:35 PM 37.4 °F 28.9 °F 28.4 °F 70% 29.76 in 10.0 mi SW 13.8 mph - N/A   Clear
8:55 PM 37.4 °F 28.5 °F 28.4 °F 70% 29.75 in 10.0 mi WSW 15.0 mph - N/A   Clear
9:15 PM 39.2 °F 30.2 °F 26.6 °F 61% 29.75 in 10.0 mi WSW 17.3 mph - N/A   Clear
9:35 PM 41.0 °F 31.4 °F 26.6 °F 57% 29.76 in 10.0 mi WSW 21.9 mph - N/A   Clear
9:55 PM 41.0 °F 31.9 °F 26.6 °F 57% 29.76 in 10.0 mi WSW 19.6 mph - N/A   Clear
10:15 PM 39.2 °F 30.2 °F 26.6 °F 61% 29.76 in 10.0 mi WSW 17.3 mph - N/A   Clear
10:35 PM 39.2 °F 29.6 °F 26.6 °F 61% 29.76 in 10.0 mi WSW 19.6 mph - N/A   Clear
10:55 PM 37.4 °F 26.9 °F 26.6 °F 65% 29.76 in 10.0 mi WSW 20.7 mph - N/A   Clear
11:15 PM 37.4 °F 27.5 °F 28.4 °F 70% 29.76 in 10.0 mi WSW 18.4 mph - N/A   Clear
11:35 PM 37.4 °F 27.8 °F 28.4 °F 70% 29.76 in 10.0 mi WSW 17.3 mph - N/A   Clear
11:55 PM 37.4 °F 28.2 °F 28.4 °F 70% 29.76 in 10.0 mi WSW 16.1 mph - N/A   Clear